[[{"header":{"parameterUnit":"m.s-1","parameterCategory":1,"la1":30.2991,"la2":30.254,"lo1":-89.0895,"lo2":-89.0444,"dy":0.0017,"dx":0.0017,"nx":28,"ny":28,"refTime":"2023-08-15T09:00:00:Z","depth":0,"parameterNumber":2,"parameterNumberName":"U-component_of_WINDS"},"data":[0,0,0,0,0,0,0,0,0,0,0,0,0,0,0,0,0,0,0,0,0,0,0,0,0,0,0,0,0,0,0,0,0,0,0,0,0,0,0,0,0,0,0,0,0,0,0,0,0,0,0,0,0,0,0,0,0,0,0.4459,0.4458,0,0.4387,0.4386,0.4385,0.4303,0.4302,0.4301,0.4299,0.4228,0.4227,0.4226,0,0,0,0,0,0,0,0,0,0,0,0,0,0.4526,0.4525,0.4459,0.4458,0.4457,0.4387,0.4386,0.4385,0.4303,0.4302,0.43,0.4299,0.4228,0.4227,0.4226,0,0,0,0,0,0,0,0,0,0,0,0,0,0.448,0.4525,0.4459,0.4408,0.4402,0.4387,0.4386,0.4385,0.4304,0.4302,0.43,0.4298,0.4228,0.4227,0.4226,0.4256,0,0,0.4223,0.4222,0,0,0,0,0,0,0,0,0.4482,0.4477,0.4416,0.4411,0.4405,0.4352,0.4383,0.4342,0.4304,0.4341,0.4299,0.4297,0.4271,0.4266,0.4257,0.4253,0.425,0.4223,0.4222,0.4222,0.4221,0,0,0,0,0,0,0,0.4486,0.448,0.443,0.4415,0.4409,0.4388,0.438,0.4375,0.4317,0.4338,0.4332,0.4324,0.4267,0.4258,0.4254,0.4249,0.4223,0.4222,0.4221,0.4221,0.4263,0.4265,0,0,0,0,0,0,0.4496,0.4483,0.4432,0.4428,0.444,0.4389,0.4379,0.4371,0.4317,0.4307,0.4326,0.4321,0.4261,0.4256,0.4252,0.4281,0.4222,0.422,0.422,0.4262,0.4264,0.4266,0,0,0,0,0,0,0.4498,0.4493,0.4435,0.4454,0.4445,0.4389,0.4381,0.437,0.4361,0.4308,0.4297,0.4327,0.4259,0.4253,0.4255,0.4278,0.422,0.4219,0.4259,0.4262,0.4265,0.4343,0,0,0,0,0,0,0.45,0.4494,0.4505,0.4455,0.4444,0.444,0.4382,0.437,0.4359,0.4351,0.4306,0.4297,0.4257,0.4257,0.4254,0.4275,0.4218,0.4257,0.4261,0.4264,0.4338,0.4348,0.4357,0,0,0,0,0,0.4503,0.453,0.4506,0.45,0.4457,0.4442,0.4436,0.4389,0.4361,0.4371,0.4337,0.4298,0.4276,0.4258,0.4254,0.4275,0.4255,0.426,0.4264,0.4334,0.4346,0.4356,0,0,0,0,0,0,0.4586,0.4523,0.4495,0.4507,0.448,0.4428,0.444,0.4404,0.4385,0.4379,0.4323,0.4313,0.4321,0.4298,0.4279,0.43,0.426,0.4263,0.4315,0.4326,0.4335,0.434,0.4217,0,0,0,0,0,0.4605,0.4598,0.4544,0.4559,0.4547,0.4496,0.4488,0.4454,0.4424,0.4413,0.4379,0.4352,0.4338,0.4331,0.4316,0.4334,0.4323,0.4347,0.4356,0.4364,0.4367,0.4374,0.4383,0.4279,0.4279,0.4279,0,0,0.4646,0.4611,0.461,0.4575,0.455,0.4544,0.4487,0.4483,0.4478,0.4412,0.4411,0.4385,0.4351,0.4361,0.4364,0.4342,0.4393,0.4369,0.4376,0.4375,0.4379,0.4389,0.4398,0.4282,0.4281,0.4281,0,0,0.4716,0.4689,0.4698,0.4674,0.4637,0.4602,0.4604,0.4557,0.4537,0.4535,0.4485,0.4478,0.4457,0.4434,0.442,0.4479,0.4442,0.4476,0.4524,0.4531,0.4539,0.4546,0.4566,0.4574,0.448,0.448,0.448,0,0.4771,0.4759,0.4708,0.4706,0.4692,0.4631,0.464,0.4619,0.4579,0.4571,0.4547,0.4518,0.4491,0.4494,0.4508,0.4499,0.4499,0.4481,0.4542,0.4549,0.4554,0.4573,0.4581,0.4484,0.4484,0.4483,0.4483,0,0.4828,0.482,0.4832,0.4794,0.4781,0.4785,0.4734,0.4727,0.4694,0.4662,0.466,0.4625,0.4601,0.4599,0.4568,0.4597,0.4585,0.4553,0.4511,0.4569,0.4586,0.4593,0.449,0.4489,0.4487,0.4486,0,0,0.4949,0.4881,0.4886,0.4867,0.4821,0.4814,0.4814,0.479,0.4785,0.4759,0.4757,0.474,0.4709,0.4693,0.4658,0.4664,0.4712,0.4631,0.4629,0.4646,0.4741,0.4765,0.4774,0.4687,0.4688,0.4689,0.4743,0,0.501,0.5007,0.496,0.497,0.4961,0.4902,0.4903,0.4874,0.4844,0.4832,0.4799,0.4787,0.4747,0.4737,0.474,0.4706,0.473,0.4701,0.4685,0.4685,0.4695,0.4783,0.4809,0.4862,0.4749,0.4751,0.4751,0,0.5082,0.5059,0.5067,0.5019,0.5014,0.5015,0.4987,0.4977,0.4943,0.4921,0.4902,0.4862,0.4858,0.4819,0.4813,0.4795,0.4785,0.4767,0.4768,0.4764,0.4722,0.4781,0.4878,0.4886,0.4761,0.476,0.476,0,0.5168,0.5139,0.514,0.5126,0.507,0.5072,0.5048,0.5013,0.5,0.4977,0.4968,0.4945,0.4932,0.4915,0.4869,0.4845,0.4868,0.4826,0.4849,0.485,0.4857,0.4857,0.4953,0.4852,0.4852,0.4852,0.4851,0,0.5241,0.5249,0.5178,0.5179,0.5185,0.513,0.5138,0.5109,0.5077,0.5071,0.5019,0.5015,0.4955,0.4944,0.4908,0.4908,0.4903,0.4884,0.4875,0.4889,0.4891,0.4882,0.4877,0.4854,0.4853,0.4853,0.4852,0,0.5339,0.5292,0.5289,0.5235,0.5222,0.5229,0.5183,0.5181,0.5147,0.5139,0.5134,0.5081,0.5065,0.5017,0.4989,0.4965,0.4975,0.4957,0.4987,0.498,0.5006,0.5004,0.5099,0.5108,0.5002,0.5003,0.5004,0,0.5388,0.5392,0.5338,0.533,0.5309,0.5296,0.5283,0.5229,0.5217,0.5178,0.5181,0.516,0.514,0.5117,0.5076,0.5053,0.5034,0.5069,0.5031,0.5044,0.5034,0.5034,0.5034,0.5078,0.5079,0.508,0.5081,0,0.5481,0.5457,0.5439,0.5413,0.5398,0.5376,0.535,0.5346,0.5286,0.5275,0.5257,0.5242,0.5212,0.5192,0.5163,0.5139,0.51,0.5093,0.5097,0.5112,0.5128,0.5119,0.5009,0.5091,0.509,0.509,0.5089,0.5089,0.5555,0.5555,0.5517,0.5499,0.5473,0.545,0.5445,0.541,0.5393,0.5364,0.5334,0.5319,0.5283,0.524,0.5219,0.5206,0.5186,0.5192,0.5193,0.5196,0.5202,0.513,0.5201,0.52,0.52,0.52,0.5199,0,0.5644,0.5616,0.56,0.5565,0.555,0.5514,0.5483,0.5473,0.546,0.543,0.5411,0.539,0.537,0.5326,0.5302,0.53,0.5282,0.5296,0.5295,0.529,0.5222,0.522,0.5311,0.5311,0.5311,0.5311,0.5311,0.5311,0.5689,0.5687,0.5658,0.5643,0.5614,0.5599,0.5584,0.5562,0.5538,0.5516,0.5498,0.547,0.5434,0.5406,0.5385,0.5373,0.5366,0.5386,0.5368,0.5305,0.5295,0.5285,0.5283,0.5385,0.5385,0.5437,0.5437,0.5438]},{"header":{"parameterUnit":"m.s-1","parameterCategory":1,"la1":30.2991,"la2":30.254,"lo1":-89.0895,"lo2":-89.0444,"dy":0.0017,"dx":0.0017,"nx":28,"ny":28,"refTime":"2023-08-15T09:00:00:Z","depth":0,"parameterNumber":3,"parameterNumberName":"V-component_of_WINDS"},"data":[0,0,0,0,0,0,0,0,0,0,0,0,0,0,0,0,0,0,0,0,0,0,0,0,0,0,0,0,0,0,0,0,0,0,0,0,0,0,0,0,0,0,0,0,0,0,0,0,0,0,0,0,0,0,0,0,0,0,2.8869,2.8868,0,2.8805,2.8804,2.8804,2.8701,2.8699,2.8698,2.8696,2.8632,2.8632,2.8632,0,0,0,0,0,0,0,0,0,0,0,0,0,2.8904,2.8904,2.8869,2.8868,2.8867,2.8805,2.8804,2.8803,2.8702,2.8699,2.8697,2.8695,2.8632,2.8632,2.8632,0,0,0,0,0,0,0,0,0,0,0,0,0,2.8869,2.8904,2.8869,2.8809,2.8803,2.8805,2.8804,2.8803,2.8702,2.8699,2.8697,2.8694,2.8632,2.8632,2.8632,2.8688,0,0,2.8632,2.8632,0,0,0,0,0,0,0,0,2.8871,2.8868,2.8819,2.8813,2.8806,2.8758,2.8793,2.8765,2.8703,2.8741,2.8696,2.8693,2.8676,2.8672,2.8667,2.8685,2.8682,2.8632,2.8632,2.8632,2.8632,0,0,0,0,0,0,0,2.8874,2.887,2.8844,2.8818,2.8811,2.8786,2.8778,2.8787,2.8725,2.8737,2.8729,2.8723,2.8672,2.8667,2.8664,2.8681,2.8632,2.8632,2.8632,2.8632,2.8741,2.8744,0,0,0,0,0,0,2.8885,2.8873,2.8846,2.8842,2.8833,2.8787,2.8778,2.8777,2.8724,2.8714,2.8726,2.8719,2.8668,2.8664,2.8662,2.8722,2.8632,2.8632,2.8632,2.8738,2.8741,2.8745,0,0,0,0,0,0,2.8886,2.8884,2.8848,2.8855,2.8849,2.879,2.8789,2.8777,2.8771,2.8716,2.8704,2.8731,2.8666,2.8662,2.8682,2.8719,2.8632,2.8632,2.8735,2.8739,2.8743,2.8846,0,0,0,0,0,0,2.8888,2.8885,2.8905,2.8856,2.8849,2.887,2.8791,2.8778,2.8771,2.8762,2.8718,2.8708,2.8663,2.8682,2.8682,2.8717,2.8632,2.8731,2.8737,2.8742,2.8839,2.8853,2.8865,0,0,0,0,0,2.8889,2.8937,2.8907,2.8904,2.8873,2.8872,2.8868,2.8814,2.8775,2.8795,2.8759,2.871,2.8715,2.8685,2.8684,2.872,2.8728,2.8735,2.8741,2.8833,2.885,2.8865,0,0,0,0,0,0,2.8992,2.893,2.8895,2.8929,2.8907,2.8855,2.8878,2.8835,2.8823,2.8815,2.875,2.8741,2.8769,2.8747,2.8714,2.8771,2.8714,2.8721,2.8784,2.88,2.8813,2.8817,2.8632,0,0,0,0,0,2.9019,2.9023,2.8968,2.9003,2.8994,2.8938,2.8936,2.8897,2.8871,2.8861,2.8827,2.8804,2.88,2.8799,2.8793,2.8835,2.8824,2.886,2.8873,2.8884,2.889,2.8909,2.8924,2.8766,2.8766,2.8765,0,0,2.9074,2.904,2.9047,2.9023,2.9001,2.9006,2.8931,2.894,2.8943,2.8862,2.8878,2.8853,2.8823,2.8854,2.8866,2.8836,2.8931,2.8892,2.8901,2.8901,2.8917,2.8932,2.8946,2.877,2.8769,2.8769,0,0,2.9177,2.9152,2.9178,2.9157,2.9125,2.9087,2.9094,2.9049,2.9028,2.9043,2.8982,2.8986,2.8981,2.8962,2.8951,2.9047,2.9,2.9047,2.9115,2.9135,2.9147,2.9158,2.919,2.9203,2.9053,2.9053,2.9053,0,2.9249,2.9255,2.9197,2.9209,2.92,2.9127,2.9152,2.9135,2.9103,2.9098,2.9065,2.9057,2.9032,2.9057,2.908,2.9075,2.9079,2.9051,2.915,2.916,2.9169,2.92,2.9212,2.9059,2.9058,2.9058,2.9057,0,2.9345,2.935,2.9374,2.9344,2.9338,2.9357,2.9302,2.9303,2.9264,2.9231,2.9247,2.9214,2.9199,2.9202,2.9166,2.9222,2.9204,2.9162,2.9103,2.9191,2.9218,2.923,2.9067,2.9065,2.9063,2.9062,0,0,2.951,2.9447,2.9457,2.9442,2.94,2.9403,2.9419,2.9403,2.9405,2.9385,2.9396,2.9393,2.9353,2.9342,2.9302,2.9319,2.9395,2.9274,2.9273,2.9297,2.9453,2.9484,2.9499,2.9364,2.9366,2.9368,2.9455,0,2.9603,2.9625,2.9574,2.9609,2.9612,2.9543,2.9556,2.9532,2.9501,2.9499,2.9465,2.9464,2.9412,2.9404,2.9419,2.9383,2.9425,2.9376,2.9373,2.9373,2.9381,2.9513,2.9546,2.963,2.9466,2.9467,2.9469,0,2.9714,2.9699,2.9735,2.969,2.969,2.9703,2.9684,2.9683,2.9655,2.9631,2.9618,2.9571,2.9583,2.9527,2.9542,2.951,2.9505,2.9488,2.949,2.9486,2.9426,2.9512,2.9656,2.9668,2.9485,2.9484,2.9483,0,2.9829,2.9818,2.9837,2.9827,2.9776,2.9787,2.9766,2.9734,2.9728,2.9712,2.9707,2.9694,2.9686,2.9676,2.9626,2.9591,2.9646,2.9587,2.9626,2.9628,2.964,2.964,2.9784,2.964,2.964,2.964,2.9639,0,2.9938,2.9962,2.9888,2.99,2.9925,2.9866,2.9892,2.9864,2.9837,2.9842,2.9781,2.9787,2.9722,2.9721,2.9682,2.9699,2.9697,2.9677,2.9666,2.9682,2.9684,2.9677,2.967,2.9643,2.9642,2.9642,2.9641,0,3.007,3.0022,3.0038,2.9988,2.9977,2.9997,2.9954,2.9963,2.9928,2.9935,2.9933,2.9879,2.9874,2.9824,2.9808,2.9782,2.9814,2.9793,2.9824,2.9816,2.9857,2.9854,3.0001,3.0017,2.9865,2.9866,2.9868,0,3.0142,3.0158,3.0111,3.0109,3.0091,3.0091,3.0084,3.0026,3.0022,2.999,3.0002,2.9993,2.9982,2.9977,2.9936,2.9923,2.99,2.9953,2.9898,2.9913,2.99,2.9899,2.9899,2.9964,2.9966,2.9968,2.9969,0,3.0274,3.0249,3.0241,3.0226,3.0219,3.0204,3.0185,3.0188,3.0125,3.0123,3.0117,3.0108,3.0092,3.0082,3.0062,3.0041,2.9994,2.9987,2.9995,3.0011,3.0027,3.0017,2.9854,2.9984,2.9982,2.9981,2.998,2.998,3.0376,3.0388,3.0356,3.0349,3.0329,3.0313,3.0318,3.0284,3.0278,3.026,3.0226,3.0225,3.0195,3.0163,3.0146,3.0143,3.0116,3.0128,3.0131,3.0135,3.0142,3.0029,3.014,3.0139,3.0139,3.0138,3.0138,0,3.0504,3.048,3.0475,3.045,3.0445,3.0402,3.0379,3.0377,3.0377,3.0353,3.0343,3.0336,3.0327,3.0285,3.027,3.0277,3.0255,3.0275,3.0273,3.0269,3.0168,3.0162,3.0293,3.0292,3.0292,3.0292,3.0292,3.0292,3.057,3.0586,3.0558,3.0563,3.0539,3.0537,3.0527,3.0512,3.0492,3.0487,3.0478,3.0451,3.0419,3.0402,3.0391,3.0379,3.0376,3.0403,3.0384,3.0291,3.0276,3.0262,3.0255,3.0403,3.0403,3.0484,3.0485,3.0485]}]]